Find Starlink 36919

NORAD ID: 68053 Int'l Des: 2026-041 Owner: SPXS Country: US Constellation: starlink operational
LEOCIRCULAR

リアルタイム位置

3D地球を読み込み中...

Starlink 36919について

説明を読み込み中...

次回通過

Passes for default location (London). Set your location on the main map for personalized predictions.

高度履歴

Loading altitude history...

軌道要素

1 68053U 26041P 26106.91668981 -.01804223 00000-0 -48118-1 0 9993
2 68053 53.1612 232.3876 0001697 62.5751 162.2260 15.40799503 5920
Epoch: Apr 16, 2026 • Age: 9 hours

現在のステータス

高度 450.8 km
速度 7.65 km/s
衛星直下点 42.42°N, 31.12°W
打ち上げ日 Mar 2, 2026
運用期間 0.1 years
タイプ internet

技術仕様

分類 Payload
質量 575.00 kg
乾燥質量 530.00 kg
総質量 575.00 kg
長さ 0.30 m
直径 4.10 m
スパン 29.00 m
形状 Box + pan
製造者 SPXS
バスタイプ Starlink V2MO
フェーズステータス In Orbit
所有者/国 SPXS/US

Most Searched